Theta_e
288 288 287 285 284 283 282 281 280 280 280 280 280 279 279 279 279 278 278 277 277 276 276 276 276 276 275 274 275 274 274 273 271 272 273 274 273 274 275 276 276 276 276
288 287 286 284 283 281 281 280 280 280 280 280 280 280 279 279 278 278 277 277 276 276 276 275 275 276 274 274 274 273 273 273 272 270 272 272 272 274 274 274 276 277 276
286 286 284 283 281 281 280 280 280 279 279 279 279 279 279 278 278 278 278 276 275 275 275 275 275 275 274 273 273 272 272 274 272 271 271 273 273 274 274 275 275 275 277
286 285 283 282 282 281 281 280 280 279 279 279 279 279 278 278 278 277 277 275 275 275 276 275 275 274 274 273 273 272 273 272 272 271 271 271 273 274 274 272 272 274 274
285 284 283 283 283 281 280 280 279 279 279 279 278 278 278 277 277 277 276 276 275 275 275 276 275 275 278 276 274 273 273 271 271 270 270 271 272 272 271 272 271 273 273
284 283 283 282 281 281 280 280 279 279 279 278 278 277 277 277 281 282 278 275 275 275 274 274 275 274 275 279 280 281 277 271 265 265 271 271 272 272 272 272 272 270 268
283 283 282 282 281 280 280 279 279 278 278 278 277 277 277 276 283 284 282 276 275 275 274 275 275 275 274 274 277 280 279 280 280 275 273 274 272 273 273 272 271 270 269
282 282 282 282 281 280 280 279 279 278 278 277 277 277 277 277 283 284 283 276 275 275 275 274 274 274 274 273 273 272 273 273 274 275 275 275 274 275 276 274 271 269 269
282 282 282 282 281 280 279 279 279 278 278 277 278 277 277 276 282 284 283 277 276 275 275 274 274 274 276 279 275 271 272 274 278 280 281 281 281 279 277 272 264 262 264
282 283 283 283 282 280 280 279 279 279 279 278 278 278 277 277 281 283 283 277 274 275 275 275 277 274 277 279 275 270 270 272 273 272 273 274 274 271 274 271 269 264 264
283 282 282 282 282 282 281 280 280 279 278 277 277 276 277 276 275 282 284 277 276 274 274 274 274 278 279 280 281 275 274 276 274 275 269 268 268 268 269 270 270 269 265
282 282 282 282 282 282 282 281 280 279 278 277 276 274 273 272 275 279 282 283 280 274 273 274 273 278 279 280 280 280 281 281 272 265 262 263 265 266 268 269 269 269 269
283 283 283 283 283 283 282 281 279 280 279 277 274 274 271 271 272 278 279 281 281 279 276 275 278 279 280 280 281 281 279 272 265 261 263 265 266 267 268 267 267 267 267
283 282 282 282 282 282 283 282 280 277 277 276 273 273 269 269 269 270 270 270 273 273 273 268 273 278 279 278 276 275 275 272 268 268 266 266 266 264 263 265 264 264 263
280 277 279 280 278 275 274 274 274 272 276 273 271 270 268 266 268 271 268 262 262 267 268 261 261 266 269 269 269 269 269 269 268 268 267 264 263 264 263 264 264 261 260
271 271 271 271 270 270 270 269 275 275 277 276 275 270 263 272 275 277 278 279 279 279 275 270 268 267 267 268 268 268 269 267 268 268 266 264 263 262 261 262 263 261 259
270 268 268 269 269 268 268 269 269 273 278 278 278 278 276 276 275 275 275 275 273 266 255 254 256 259 261 263 264 266 267 268 267 266 265 263 263 261 260 259 261 261 259
265 265 266 265 265 264 264 264 267 267 264 259 268 270 272 272 271 271 271 264 254 254 248 249 250 251 254 258 259 261 263 264 263 263 262 261 260 259 256 258 259 258 259
263 261 261 260 260 261 260 259 259 258 256 252 254 260 259 268 269 268 264 249 247 247 246 247 247 248 251 254 258 260 259 260 261 260 258 258 257 256 255 257 258 259 259
259 261 260 260 259 259 258 258 256 255 254 253 251 251 248 252 250 248 246 245 244 244 245 245 247 247 249 253 256 252 252 252 257 257 257 257 256 257 257 257 258 258 257
258 257 258 257 256 255 255 256 256 255 255 254 253 251 261 252 249 246 246 243 243 243 244 244 246 247 247 250 248 250 249 254 254 256 257 256 255 255 257 258 258 257 257
256 255 255 255 256 256 254 255 255 255 253 252 250 251 263 250 245 244 242 242 243 243 244 244 246 247 250 249 249 251 252 252 254 257 257 256 255 256 256 256 256 256 256
255 254 253 252 253 254 253 252 253 253 252 253 252 250 246 244 242 242 243 242 242 243 244 242 244 248 249 248 248 252 254 251 255 256 256 255 255 255 254 254 254 254 255
254 255 256 253 252 251 252 251 253 254 253 252 249 247 245 244 243 243 243 243 242 245 243 243 245 247 249 249 249 250 253 253 254 255 255 254 254 254 252 252 250 253 254
252 253 253 254 252 251 251 252 253 251 251 251 248 244 243 243 243 243 243 244 244 243 246 246 246 247 248 249 250 248 249 255 254 255 254 252 252 252 249 244 245 249 253
251 251 250 250 252 252 252 251 250 251 249 247 246 245 245 245 246 245 246 246 247 247 248 248 248 248 249 249 249 252 253 257 255 255 252 251 251 248 241 244 244 248 251
Wind_Speed
13 12 13 12 11 11 10 10 10 10 11 11 11 10 10 9 7 8 7 8 9 7 6 6 5 5 3 3 2 2 3 3 3 3 3 2 3 6 8 7 8 8 8
12 12 12 12 12 12 11 10 10 12 9 10 10 9 8 8 7 9 9 7 9 8 7 6 6 4 5 4 3 4 3 3 3 4 3 3 5 7 9 10 8 8 8
13 12 12 13 13 13 13 12 12 12 10 9 10 10 9 8 7 6 7 7 6 6 6 6 6 6 5 3 3 4 3 3 3 3 5 2 3 5 9 8 9 9 8
14 14 14 14 14 13 12 12 11 11 11 10 9 8 8 7 6 6 7 7 6 5 5 5 5 6 6 6 4 4 4 3 3 4 5 5 4 6 5 8 13 8 12
15 15 16 14 12 11 11 12 11 10 9 9 8 7 6 7 6 7 7 7 6 5 5 5 5 5 9 7 4 5 5 4 4 3 5 5 6 6 7 7 9 12 13
14 15 13 13 13 12 11 11 10 9 8 8 8 9 8 6 13 15 10 7 6 6 6 5 5 6 8 11 11 13 10 5 4 2 5 7 8 6 7 7 8 10 10
13 12 12 14 14 12 11 11 11 11 9 9 8 8 8 6 15 16 15 5 6 6 6 5 5 5 6 5 10 14 13 14 15 7 8 7 6 7 10 10 9 9 11
12 12 14 14 14 14 13 13 11 10 11 10 9 8 7 6 16 16 15 6 5 6 6 5 6 5 6 5 6 7 8 8 8 8 8 8 7 9 7 7 9 9 11
15 15 15 14 14 14 14 13 10 9 8 7 5 7 7 5 16 16 13 6 6 7 5 6 7 7 10 14 8 7 9 9 12 19 20 18 19 16 14 8 5 4 9
12 11 12 13 14 14 13 12 9 8 7 5 6 6 7 6 14 16 13 4 5 5 5 7 13 9 15 16 9 6 10 10 7 7 4 7 7 7 14 7 5 7 6
9 9 10 11 12 12 11 9 8 8 7 7 5 4 6 8 8 17 17 4 6 5 6 6 6 15 18 18 20 9 12 9 12 9 4 3 5 6 5 5 7 6 7
10 10 10 9 8 9 11 9 8 9 9 7 8 6 5 4 8 14 16 16 11 6 7 6 6 15 18 19 16 18 21 19 2 2 2 4 4 4 4 5 6 8 8
12 12 12 11 10 10 11 11 9 10 8 8 6 7 5 4 4 13 13 16 16 11 4 8 13 17 20 17 19 20 16 2 4 3 4 3 3 4 5 6 6 9 9
10 10 9 10 9 9 8 7 8 7 7 6 7 6 4 3 3 2 3 3 8 8 9 5 11 17 18 16 8 8 6 4 5 6 5 2 2 1 3 4 5 5 7
7 6 7 6 8 6 4 4 4 1 5 6 5 4 4 3 4 7 6 3 4 7 5 1 1 2 6 5 6 6 5 5 6 6 5 3 3 3 4 3 4 3 5
7 5 5 5 5 5 6 5 6 8 9 9 10 7 1 4 6 6 7 7 7 9 2 3 4 5 5 6 6 7 5 6 7 6 4 3 4 4 4 4 4 4 6
7 6 5 6 6 7 6 7 8 6 11 11 13 12 11 8 5 3 3 4 11 8 3 2 1 2 5 6 7 7 8 6 5 4 4 4 4 3 4 3 4 5 5
6 6 5 5 5 5 5 5 6 9 7 3 6 9 9 8 7 6 5 9 5 6 2 1 1 2 2 4 5 6 8 5 4 4 4 2 3 3 2 4 5 4 5
6 4 5 5 4 5 5 4 4 4 4 3 2 5 6 8 9 9 10 4 3 0 1 2 2 2 3 3 5 5 4 6 6 4 2 2 3 3 4 4 5 7 7
6 8 6 6 5 5 4 5 5 5 4 3 3 2 2 4 3 2 2 1 2 2 2 3 3 3 3 4 4 3 3 3 5 4 4 3 3 4 5 4 4 5 4
5 5 7 6 5 4 4 4 4 4 4 3 2 1 6 4 3 2 1 2 3 3 3 3 3 4 3 4 4 4 3 5 3 4 4 3 3 4 4 5 4 4 5
5 5 4 5 5 5 4 4 4 4 4 3 1 2 3 3 2 2 3 4 4 4 3 3 3 3 4 4 4 4 4 4 4 5 5 3 4 4 4 4 4 4 4
6 6 5 3 4 6 5 4 4 3 3 3 3 2 0 1 3 4 4 4 3 3 3 3 3 4 4 4 4 4 5 4 5 4 4 4 4 4 3 4 4 4 4
5 6 6 4 3 3 3 3 3 5 4 3 3 3 3 4 4 5 4 3 3 4 3 3 3 5 5 5 4 5 5 5 4 5 6 5 5 5 3 4 4 5 6
4 4 4 4 4 3 3 2 3 3 3 3 3 3 3 3 3 4 3 3 4 3 4 3 3 6 8 9 8 8 7 11 8 6 5 6 7 7 4 4 4 4 7
4 4 3 3 3 3 3 2 2 2 3 3 4 3 4 3 4 4 4 4 4 3 5 4 5 9 10 7 9 11 10 12 10 11 6 6 6 5 3 6 6 5 7
Wind_Direction
165 164 163 163 155 152 157 155 153 148 154 156 154 150 153 156 156 136 130 138 129 128 127 134 139 145 148 140 142 139 156 157 209 277 253 263 286 283 309 310 304 294 297
168 164 166 159 155 159 159 157 154 158 159 156 155 155 158 162 159 149 147 150 140 145 151 144 158 158 159 168 164 181 186 187 202 274 280 254 241 319 307 303 306 300 302
159 163 162 167 164 168 165 161 162 159 161 158 158 161 163 167 163 160 145 140 143 151 156 163 170 170 177 181 181 188 210 238 207 246 279 269 284 313 312 305 311 309 305
165 168 170 174 174 171 166 165 164 163 160 162 165 161 164 163 163 153 142 139 144 158 168 175 180 190 193 190 190 200 215 221 228 243 266 288 292 307 291 321 320 322 316
171 173 176 169 167 163 163 164 161 163 164 164 155 151 154 163 167 159 156 156 159 164 184 195 203 207 214 201 177 205 211 223 228 250 277 282 296 307 314 319 305 311 312
175 175 167 159 152 164 164 164 158 160 158 155 166 165 167 178 185 181 170 161 165 180 195 204 214 216 224 226 233 246 213 200 219 210 268 270 285 299 304 305 302 316 315
174 171 163 159 156 160 158 159 168 171 161 173 170 165 181 179 193 194 188 172 177 191 199 194 216 219 217 217 253 253 256 263 258 241 255 258 281 290 295 298 304 297 287
172 166 165 164 159 156 163 169 168 169 176 178 180 179 176 187 208 203 199 169 193 204 201 200 219 225 221 212 226 236 243 242 250 260 262 262 257 267 263 297 304 300 293
180 174 170 166 160 162 172 171 166 163 173 180 172 169 182 189 212 211 205 168 204 217 202 209 221 232 241 252 241 231 242 243 248 261 263 253 277 297 302 308 294 301 302
184 173 163 165 164 169 168 167 165 170 175 163 167 186 201 200 216 217 214 165 205 218 212 226 231 233 251 256 253 226 251 255 243 245 247 267 279 281 289 282 277 276 282
155 154 154 160 162 164 159 157 155 160 159 167 178 187 202 204 210 223 224 177 212 213 227 236 234 249 262 263 258 233 239 253 249 251 194 229 243 246 249 250 258 272 280
127 131 135 142 143 150 155 153 166 178 180 173 195 200 195 183 212 231 231 234 215 213 230 236 236 254 262 263 264 263 268 273 233 166 203 231 235 248 250 256 266 272 268
146 152 164 167 171 173 172 173 172 184 189 194 195 210 192 177 205 227 231 242 250 256 226 233 250 256 264 269 271 273 277 230 178 184 224 241 217 251 280 285 280 274 273
160 166 166 171 170 172 178 178 180 178 188 193 196 204 159 174 197 205 239 274 284 284 300 310 282 276 273 276 279 274 267 220 218 228 234 212 195 201 265 267 282 295 298
143 138 150 154 155 131 98 137 151 100 179 183 183 156 152 181 219 210 197 214 224 242 250 232 264 260 283 283 278 277 267 256 239 235 227 211 230 241 256 260 275 289 277
120 125 131 129 123 126 122 96 109 148 140 127 142 146 191 162 168 189 218 250 275 304 281 4 10 1 332 310 296 288 267 247 250 246 221 207 220 231 257 267 277 267 280
125 130 125 132 139 140 137 133 125 116 127 111 107 119 112 111 85 49 12 343 44 48 73 42 348 339 326 315 310 311 303 292 280 248 237 213 214 219 244 256 274 281 283
97 98 122 124 124 122 133 133 137 142 138 106 61 94 90 90 79 59 30 58 23 25 86 87 307 296 300 300 300 300 304 302 274 255 239 221 211 234 229 249 263 266 274
106 102 101 95 92 111 114 109 114 117 119 120 54 73 25 70 78 64 71 110 146 111 331 340 281 271 268 281 287 293 299 300 290 273 260 242 236 221 243 246 258 270 281
93 113 107 117 115 106 106 115 107 106 110 117 118 155 352 51 52 9 47 98 115 202 231 239 261 255 261 263 284 282 278 276 277 270 260 248 243 236 253 251 247 265 266
104 95 105 93 96 107 116 121 126 126 128 119 133 215 182 129 162 177 232 240 214 236 243 233 256 257 257 276 279 283 263 272 263 266 250 238 238 247 248 253 264 265 267
95 102 97 116 122 113 109 113 114 113 123 137 170 270 96 105 143 202 227 242 235 226 225 223 250 241 244 248 253 261 263 263 267 266 258 246 248 251 248 257 259 269 269
113 112 103 92 104 116 111 118 127 130 152 164 162 169 91 201 214 225 238 244 248 266 255 219 236 269 260 253 243 245 263 249 257 256 248 251 248 245 239 252 258 265 264
113 120 124 115 106 92 117 144 153 162 160 167 186 198 211 217 223 236 246 257 264 259 246 244 237 248 271 270 258 251 247 252 243 250 241 247 253 251 236 245 227 261 269
71 87 100 125 125 134 135 152 182 183 180 192 205 215 226 233 249 253 255 250 255 258 271 264 250 260 268 270 269 263 257 271 267 242 225 223 242 236 229 221 217 244 262
108 108 115 121 138 150 166 187 210 224 213 220 223 221 225 234 246 248 254 256 256 254 263 254 257 267 271 264 262 265 257 260 252 238 215 218 231 233 204 233 230 233 250